This is the latest recevied weather packets stored in our database for station/object K1TTC. If no packets are shown the sender has not sent any weather packets the latest 10 day(s).
| Time | Temp. | Humidity | Pressure | Rain* | Wind** | Luminosity | Snow |
|---|---|---|---|---|---|---|---|
| 1788214986 | 25° C | 47% | 1019.9 hPa | 0 mm | - | 19 W/m² | - |
| 1788214384 | 25.56° C | 45% | 1020 hPa | 0 mm | - | 30 W/m² | - |
| 1788213784 | 25.56° C | 45% | 1019.8 hPa | 0 mm | - | 32 W/m² | - |
| 1788213182 | 25.56° C | 44% | 1019.7 hPa | 0 mm | - | 33 W/m² | - |
| 1788212584 | 26.11° C | 44% | 1019.7 hPa | 0 mm | - | 49 W/m² | - |
| 1788211983 | 26.11° C | 43% | 1019.6 hPa | 0 mm | - | 63 W/m² | - |
| 1788211383 | 26.11° C | 42% | 1019.8 hPa | 0 mm | - | 65 W/m² | - |
| 1788210783 | 26.11° C | 42% | 1019.9 hPa | 0 mm | - | 84 W/m² | - |
| 1788210182 | 26.67° C | 42% | 1019.9 hPa | 0 mm | - | 72 W/m² | - |
| 1788209582 | 26.67° C | 41% | 1019.9 hPa | 0 mm | - | 65 W/m² | - |
| 1788208982 | 26.67° C | 41% | 1020 hPa | 0 mm | - | 83 W/m² | - |
| 1788208382 | 27.22° C | 40% | 1019.9 hPa | 0 mm | - | 74 W/m² | - |
| 1788207782 | 27.78° C | 39% | 1019.9 hPa | 0 mm | - | 98 W/m² | - |
| 1788207182 | 27.78° C | 39% | 1019.9 hPa | 0 mm | - | 95 W/m² | - |
| 1788206582 | 28.33° C | 37% | 1020 hPa | 0 mm | - | 605 W/m² | - |
| 1788205982 | 28.33° C | 37% | 1020.1 hPa | 0 mm | - | 95 W/m² | - |
| 1788205383 | 28.33° C | 38% | 1020.2 hPa | 0 mm | - | 654 W/m² | - |
| 1788204786 | 28.33° C | 36% | 1020.1 hPa | 0 mm | - | 631 W/m² | - |
| 1788204183 | 27.78° C | 36% | 1020.2 hPa | 0 mm | - | 661 W/m² | - |
| 1788203583 | 27.78° C | 34% | 1020.5 hPa | 0 mm | - | 696 W/m² | - |
| 1788202982 | 27.78° C | 36% | 1020.6 hPa | 0 mm | - | 737 W/m² | - |
| 1788202384 | 27.22° C | 37% | 1020.7 hPa | 0 mm | - | 749 W/m² | - |
| 1788201781 | 27.22° C | 36% | 1020.9 hPa | 0 mm | - | 765 W/m² | - |
| 1788201181 | 27.22° C | 37% | 1020.9 hPa | 0 mm | - | 195 W/m² | - |
| 1788200583 | 27.22° C | 35% | 1021 hPa | 0 mm | - | 793 W/m² | - |
* Rain latest hour (hover to see other rain measurements)
** Current wind speed in m/s (hover to see current wind gust speed)